Location: Palmerston North
(40.3500°S, 175.6170°E)
Time: 17:18:09
(UTC+13:00)

Cosmos 1242 Rocket - Pass Details

Date: 24 January 2019
Orbit: 450 x 488 km, 81.2° (Epoch: 15 October)

Event Time Altitude Azimuth Distance (km) Brightness Sun altitude
Rises 22:58:04 0° 201° (SSW) 2,605 7.6 -20.8°
Reaches altitude 10° 23:00:24 10° 213° (SSW) 1,715 6.5 -21.1°
Maximum altitude 23:03:39 28° 272° (W) 961 4.3 -21.4°
Enters shadow 23:05:04 22° 310° (NW) 1,139 4.4 -21.6°
